Powrót do katalogu

STARLINK-6311

AktywnyŁącznośćVLEO
NORAD 56537·PAYLOAD·🇺🇸 United States

Wystrzelony May 14, 2023 z Cape Canaveral Space Force Station

Loading…

Następne Przeloty (najbliższe 24 godziny)

TLE

ŚwieżeSource: CelesTrak SupGP

Epoka: Sep 14, 2026, 20:50 UTC

1 56537C 23065AL  26257.86854167  .00024320  00000+0  88111-3 0  2578
2 56537  42.9995 238.3119 0001108 260.1921 262.1498 15.27558011    12

Śledź STARLINK-6311 w czasie rzeczywistym z AllMySat

Download on the App Store